Location: Theydon Bois
(51.6750°N, 0.1050°E)
Time: 00:29:55
(UTC+00:00)

Envisat - Pass Details

Date: 14 December 2019
Orbit: 764 x 766 km, 98.1° (Epoch: 21 January)

Event Time Altitude Azimuth Distance (km) Brightness Sun altitude
Rises 05:29:40 0° 27° (NNE) 3,246 6.5 -21.7°
Reaches altitude 10° 05:32:51 10° 47° (NE) 2,313 5.9 -21.2°
Maximum altitude 05:36:04 17° 87° (E) 1,885 6.0 -20.7°
Drops below altitude 10° 05:39:16 10° 126° (SE) 2,301 6.4 -20.2°
Sets 05:42:25 0° 147° (SSE) 3,221 6.9 -19.7°
